User: anonymous   Login
Location: *
(37.5724°S, 58.0067°E)
Time: 03:45:23
(UTC+00:00)
Language:

CZ-2C R/B - Orbit

View from above orbital plane
View from above orbital plane
View from above satellite
View from above satellite

Ground track
Ground track

The orbit data is extracted from the following two-line orbital elements,

1 36089U 09061B   20329.49708269  .00000002  00000-0  11901-4 0  9991
2 36089  98.1759 298.1523 0082676 140.4795 329.2208 14.49838771583730
Epoch (UTC): 24 November 2020 11:55:47
Eccentricity: 0.0082676
inclination: 98.1759°
perigee height: 667 km
apogee height: 785 km
right ascension of ascending node: 298.1523°
argument of perigee: 140.4795°
revolutions per day: 14.49838771
mean anomaly at epoch: 329.2208°
orbit number at epoch: 58373

The dashed part of the orbit path shows where the satellite is in the earth's shadow,  

DLR